• In Deutschland
  • Länderverzeichnis
  • Für 7 Tage
  • Wassertemperatur
  • Satellitenkarten
  • Wetterkarte
  • Widgets
  • user-avatar
    Anmelden

    Stündliche Wetter Freiberg

    Heute, 17 Juli, Dienstag

    Zeit Temperatur Niederschläge Wind Luftdruck Luftfeuchtigkeit
    00:00 +18°C° 0,1 mm 1 m/S 724 mmHg 75%
    01:00 +16°C° 0,1 mm 1 m/S 724 mmHg 77%
    02:00 +16°C° 0 mm 1 m/S 724 mmHg 79%
    03:00 +15°C° 0 mm 2 m/S 724 mmHg 81%
    04:00 +15°C° 0 mm 2 m/S 724 mmHg 83%
    05:00 +16°C° 0 mm 2 m/S 724 mmHg 81%
    06:00 +17°C° 0 mm 2 m/S 724 mmHg 78%
    07:00 +19°C° 0 mm 3 m/S 724 mmHg 75%
    08:00 +20°C° 0 mm 3 m/S 725 mmHg 71%
    09:00 +21°C° 0 mm 4 m/S 725 mmHg 66%
    10:00 +23°C° 0 mm 4 m/S 725 mmHg 61%
    11:00 +23°C° 0,1 mm 4 m/S 725 mmHg 58%
    12:00 +25°C° 0,1 mm 4 m/S 725 mmHg 55%
    13:00 +26°C° 0,1 mm 4 m/S 725 mmHg 52%
    14:00 +26°C° 0,1 mm 4 m/S 725 mmHg 53%
    15:00 +26°C° 0,1 mm 4 m/S 725 mmHg 53%
    16:00 +26°C° 0,1 mm 4 m/S 724 mmHg 54%
    17:00 +25°C° 0,1 mm 3 m/S 724 mmHg 59%
    18:00 +24°C° 0,1 mm 2 m/S 724 mmHg 64%
    19:00 +23°C° 0,1 mm 1 m/S 724 mmHg 69%
    20:00 +22°C° 0 mm 1 m/S 724 mmHg 72%
    21:00 +20°C° 0 mm 1 m/S 724 mmHg 74%
    22:00 +19°C° 0 mm 1 m/S 724 mmHg 76%
    23:00 +18°C° 0 mm 2 m/S 724 mmHg 77%

    Morgen, 18 Juli, Mittwoch

    Zeit Temperatur Niederschläge Wind Luftdruck Luftfeuchtigkeit
    00:00 +17°C° 0 mm 2 m/S 725 mmHg 78%
    01:00 +17°C° 0 mm 2 m/S 725 mmHg 78%
    02:00 +17°C° 0 mm 2 m/S 725 mmHg 79%
    03:00 +16°C° 0 mm 2 m/S 725 mmHg 81%
    04:00 +16°C° 0 mm 2 m/S 725 mmHg 82%
    05:00 +17°C° 0 mm 3 m/S 725 mmHg 80%
    06:00 +18°C° 0 mm 3 m/S 726 mmHg 78%
    07:00 +19°C° 0 mm 4 m/S 726 mmHg 75%
    08:00 +20°C° 0 mm 4 m/S 726 mmHg 71%
    09:00 +22°C° 0 mm 5 m/S 727 mmHg 66%
    10:00 +23°C° 0 mm 5 m/S 727 mmHg 61%
    11:00 +25°C° 0,1 mm 5 m/S 727 mmHg 58%
    12:00 +25°C° 0,1 mm 5 m/S 727 mmHg 56%
    13:00 +26°C° 0,1 mm 5 m/S 727 mmHg 53%
    14:00 +26°C° 0,1 mm 5 m/S 727 mmHg 54%
    15:00 +26°C° 0,1 mm 5 m/S 727 mmHg 54%
    16:00 +26°C° 0,1 mm 5 m/S 727 mmHg 54%
    17:00 +25°C° 0 mm 4 m/S 727 mmHg 59%
    18:00 +24°C° 0 mm 3 m/S 727 mmHg 63%
    19:00 +23°C° 0 mm 2 m/S 727 mmHg 68%
    20:00 +21°C° 0 mm 2 m/S 727 mmHg 70%
    21:00 +20°C° 0 mm 2 m/S 727 mmHg 72%
    22:00 +18°C° 0 mm 2 m/S 727 mmHg 74%
    23:00 +18°C° 0 mm 2 m/S 727 mmHg 76%

    übermorgen, 19 Juli, Donnerstag

    Zeit Temperatur Niederschläge Wind Luftdruck Luftfeuchtigkeit
    00:00 +17°C° 0 mm 2 m/S 727 mmHg 78%
    01:00 +16°C° 0 mm 1 m/S 727 mmHg 80%
    02:00 +16°C° 0 mm 2 m/S 727 mmHg 82%
    03:00 +15°C° 0 mm 2 m/S 727 mmHg 84%
    04:00 +15°C° 0 mm 2 m/S 727 mmHg 85%
    05:00 +16°C° 0 mm 2 m/S 728 mmHg 82%
    06:00 +17°C° 0 mm 2 m/S 728 mmHg 79%
    07:00 +18°C° 0 mm 3 m/S 728 mmHg 76%
    08:00 +19°C° 0 mm 3 m/S 728 mmHg 70%
    09:00 +20°C° 0 mm 3 m/S 728 mmHg 63%
    10:00 +22°C° 0 mm 4 m/S 728 mmHg 57%
    11:00 +23°C° 0 mm 4 m/S 728 mmHg 53%
    12:00 +23°C° 0 mm 4 m/S 728 mmHg 50%
    13:00 +25°C° 0 mm 4 m/S 728 mmHg 46%
    14:00 +25°C° 0 mm 3 m/S 728 mmHg 46%
    15:00 +26°C° 0 mm 3 m/S 728 mmHg 45%
    16:00 +26°C° 0 mm 3 m/S 728 mmHg 45%
    17:00 +25°C° 0 mm 3 m/S 728 mmHg 50%
    18:00 +24°C° 0 mm 2 m/S 728 mmHg 56%
    19:00 +23°C° 0 mm 2 m/S 727 mmHg 61%
    20:00 +20°C° 0 mm 2 m/S 728 mmHg 65%
    21:00 +20°C° 0 mm 1 m/S 728 mmHg 69%
    22:00 +18°C° 0 mm 1 m/S 728 mmHg 72%
    23:00 +16°C° 0 mm 1 m/S 728 mmHg 75%

    20 Juli, Freitag

    Zeit Temperatur Niederschläge Wind Luftdruck Luftfeuchtigkeit
    00:00 +16°C° 0 mm 1 m/S 728 mmHg 78%
    01:00 +15°C° 0 mm 1 m/S 728 mmHg 80%
    02:00 +14°C° 0 mm 0 m/S 728 mmHg 83%
    03:00 +14°C° 0 mm 0 m/S 727 mmHg 85%
    04:00 +13°C° 0 mm 0 m/S 727 mmHg 87%
    05:00 +15°C° 0 mm 0 m/S 728 mmHg 82%
    06:00 +17°C° 0 mm 0 m/S 728 mmHg 77%
    07:00 +18°C° 0 mm 0 m/S 728 mmHg 73%
    08:00 +22°C° 0 mm 1 m/S 728 mmHg 66%
    09:00 +23°C° 0 mm 1 m/S 728 mmHg 59%
    10:00 +24°C° 0 mm 2 m/S 728 mmHg 52%
    11:00 +25°C° 0 mm 2 m/S 728 mmHg 49%
    12:00 +26°C° 0 mm 2 m/S 727 mmHg 46%
    13:00 +26°C° 0 mm 2 m/S 727 mmHg 43%
    14:00 +26°C° 0 mm 2 m/S 727 mmHg 43%
    15:00 +27°C° 0 mm 1 m/S 726 mmHg 43%
    16:00 +27°C° 0 mm 1 m/S 726 mmHg 42%
    17:00 +26°C° 0 mm 1 m/S 726 mmHg 47%
    18:00 +25°C° 0 mm 2 m/S 726 mmHg 52%
    19:00 +23°C° 0 mm 2 m/S 725 mmHg 57%
    20:00 +21°C° 0 mm 2 m/S 725 mmHg 59%
    21:00 +19°C° 0 mm 2 m/S 725 mmHg 61%
    22:00 +19°C° 0 mm 1 m/S 725 mmHg 62%
    23:00 +19°C° 0 mm 1 m/S 725 mmHg 63%

    21 Juli, Samstag

    Zeit Temperatur Niederschläge Wind Luftdruck Luftfeuchtigkeit
    00:00 +18°C° 0 mm 1 m/S 725 mmHg 63%
    01:00 +18°C° 0 mm 1 m/S 725 mmHg 64%
    02:00 +18°C° 0 mm 1 m/S 725 mmHg 65%
    03:00 +16°C° 0 mm 1 m/S 724 mmHg 65%
    04:00 +16°C° 0 mm 1 m/S 724 mmHg 66%
    05:00 +18°C° 0,1 mm 1 m/S 724 mmHg 67%
    06:00 +18°C° 0,1 mm 1 m/S 724 mmHg 69%
    07:00 +19°C° 0,1 mm 1 m/S 724 mmHg 70%
    08:00 +20°C° 0,1 mm 1 m/S 724 mmHg 69%
    09:00 +20°C° 0,1 mm 2 m/S 725 mmHg 67%
    10:00 +21°C° 0,1 mm 2 m/S 725 mmHg 66%
    11:00 +21°C° 0,2 mm 2 m/S 725 mmHg 66%
    12:00 +23°C° 0,2 mm 2 m/S 725 mmHg 65%
    13:00 +22°C° 0,2 mm 3 m/S 724 mmHg 64%
    14:00 +24°C° 0,5 mm 3 m/S 724 mmHg 63%
    15:00 +24°C° 0,5 mm 3 m/S 724 mmHg 63%
    16:00 +25°C° 0,5 mm 2 m/S 724 mmHg 62%
    17:00 +24°C° 0,7 mm 2 m/S 724 mmHg 66%
    18:00 +23°C° 0,7 mm 2 m/S 724 mmHg 71%
    19:00 +20°C° 0,7 mm 2 m/S 724 mmHg 75%
    20:00 +19°C° 0,2 mm 2 m/S 724 mmHg 77%
    21:00 +19°C° 0,2 mm 2 m/S 724 mmHg 79%
    22:00 +18°C° 0,2 mm 2 m/S 724 mmHg 80%
    23:00 +17°C° 0,2 mm 2 m/S 724 mmHg 82%

    22 Juli, Sonntag

    Zeit Temperatur Niederschläge Wind Luftdruck Luftfeuchtigkeit
    00:00 +16°C° 0,2 mm 2 m/S 724 mmHg 84%
    01:00 +16°C° 0,2 mm 2 m/S 725 mmHg 86%
    02:00 +16°C° 0,2 mm 2 m/S 725 mmHg 87%
    03:00 +15°C° 0,2 mm 2 m/S 725 mmHg 89%
    04:00 +15°C° 0,2 mm 2 m/S 725 mmHg 90%
    05:00 +15°C° 0,1 mm 2 m/S 725 mmHg 90%
    06:00 +14°C° 0,1 mm 3 m/S 725 mmHg 89%
    07:00 +14°C° 0,1 mm 3 m/S 726 mmHg 88%
    08:00 +17°C° 0 mm 3 m/S 726 mmHg 82%
    09:00 +18°C° 0 mm 3 m/S 726 mmHg 76%
    10:00 +19°C° 0 mm 4 m/S 726 mmHg 70%
    11:00 +20°C° 0,1 mm 4 m/S 726 mmHg 65%
    12:00 +21°C° 0,1 mm 4 m/S 726 mmHg 60%
    13:00 +22°C° 0,1 mm 4 m/S 726 mmHg 55%
    14:00 +22°C° 0,1 mm 4 m/S 726 mmHg 55%
    15:00 +22°C° 0,1 mm 4 m/S 726 mmHg 54%
    16:00 +23°C° 0,1 mm 4 m/S 726 mmHg 54%
    17:00 +22°C° 0 mm 3 m/S 726 mmHg 58%
    18:00 +21°C° 0 mm 3 m/S 726 mmHg 62%
    19:00 +20°C° 0 mm 2 m/S 726 mmHg 66%
    20:00 +18°C° 0 mm 2 m/S 726 mmHg 71%
    21:00 +17°C° 0 mm 2 m/S 726 mmHg 76%
    22:00 +15°C° 0 mm 2 m/S 727 mmHg 81%
    23:00 +15°C° 0 mm 2 m/S 727 mmHg 84%
    Mehr zeigen